Regional Weather Roundup
Issued by NWS Sioux Falls, SD

Home | Current Version | Previous Version | Graphics & Text | Print | Product List | Glossary Off
Versions: 1 2 3 4 5 6 7 8 9 10 11 12 13 14 15 16 17 18 19 20 21 22 23 24 25 26 27 28 29 30 31 32 33 34 35 36 37 38 39 40 41 42 43 44 45 46 47 48 49 50

000
ASUS43 KFSD 261102
RWRFSD

WEATHER ROUNDUP FOR SE SOUTH DAKOTA/SW MINNESOTA/NW IOWA
NATIONAL WEATHER SERVICE SIOUX FALLS SD
600 AM CDT MON SEP 26 2016

NOTE: "FAIR" INDICATES FEW OR NO CLOUDS BELOW 12,000 FEET WITH NO
SIGNIFICANT WEATHER AND OR OBSTRUCTIONS TO VISIBILITY.


SDZ038>040-050-052>070-261200-
SOUTHEAST SOUTH DAKOTA

CITY           SKY/WX    TMP DP  RH WIND       PRES   REMARKS
CHAMBERLAIN    CLEAR     47  38  69 W10       30.22S
HURON          CLEAR     44  35  70 W9        30.16S
MADISON        FAIR      41  36  81 W10       30.15S
MITCHELL       PTCLDY    44  36  73 W7        30.18F
SIOUX FALLS    CLEAR     43  36  76 W7        30.15S
WINNER         FAIR      49  35  58 W8        30.24S
YANKTON        CLEAR     48  36  61 W8        30.19S
$$

MNZ071-072-080-081-089-090-097-098-261200-
SOUTHWEST MINNESOTA

CITY           SKY/WX    TMP DP  RH WIND       PRES   REMARKS
FAIRMONT       CLEAR     49  38  65 W13       30.07R
JACKSON        CLEAR     46  36  66 W12       30.10S
LUVERNE        CLEAR     43  34  70 W8        30.14S
MARSHALL       CLEAR     47  37  68 W13       30.08R
MONTEVIDEO     CLEAR     48  37  66 NW9G16    30.05S
PIPESTONE      CLEAR     45  36  70 NW6       30.12S
REDWOOD FALLS  CLEAR     49  37  63 W16       30.04R
TRACY          CLEAR     48  38  68 W7        30.08S
WINDOM         CLEAR     46  37  71 W9        30.08S
WORTHINGTON    CLEAR     44  37  76 W12       30.12S
$$

IAZ001>003-012>014-020>022-031-032-NEZ013-014-SDZ071-261200-
NORTHWEST IOWA

CITY           SKY/WX    TMP DP  RH WIND       PRES   REMARKS
CHEROKEE       CLEAR     45  38  77 W6        30.16S
DENISON        CLEAR     45  39  81 SW5       30.17S
ESTHERVILLE    CLEAR     47  39  74 W10       30.09S
LE MARS        PTCLDY    45  37  76 W5        30.19S
ORANGE CITY    CLEAR     43  39  87 W6        30.17S
SHELDON        CLEAR     43  37  81 W8        30.14R
SIOUX CITY     PTCLDY    47  37  68 NW5       30.20R
SPENCER        CLEAR     45  38  76 W13       30.13R
STORM LAKE     CLEAR     43  37  81 W12       30.16S
$$

ABBREVIATIONS USED IN REMARKS
   TC - TEMPERATURE IN CELSIUS
  WCI - WIND CHILL INDEX
   HX - HEAT INDEX
  VSB - VISIBILITY





USA.gov is the U.S. government's official web portal to all federal, state and local government web resources and services.